Location: Buckland
(65.9785°N, 161.1281°W)
Time: 04:30:39
(UTC+00:00)

Transit 4A - Pass Details

Date: 28 November 2020
Orbit: 864 x 980 km, 66.8° (Epoch: 26 January)

Event Time Altitude Azimuth Distance (km) Brightness Sun altitude
Rises 21:36:31 0° 245° (WSW) 3,671 11.2 1.9°
Reaches altitude 10° 21:39:04 10° 245° (WSW) 2,732 10.5 1.9°
Maximum altitude 21:45:30 85° 158° (SSE) 994 8.3 2.1°
Drops below altitude 10° 21:51:56 10° 72° (ENE) 2,733 10.3 2.2°
Sets 21:54:29 0° 72° (ENE) 3,673 10.9 2.2°
